Hourly Weather Aliwal North

Today, 2 December, Wednesday

Time Temperature Precipitation Wind Pressure Humidity
00:00 +11°C° 0 mm 7 mps 649 mmHg 63%
01:00 +10°C° 0 mm 6 mps 649 mmHg 65%
02:00 +11°C° 0 mm 4 mps 650 mmHg 68%
03:00 +10°C° 0 mm 4 mps 650 mmHg 69%
04:00 +10°C° 0 mm 4 mps 649 mmHg 69%
05:00 +8°C° 0 mm 4 mps 649 mmHg 70%
06:00 +10°C° 0 mm 4 mps 650 mmHg 61%
07:00 +10°C° 0 mm 5 mps 650 mmHg 53%
08:00 +13°C° 0 mm 5 mps 651 mmHg 44%
09:00 +15°C° 0 mm 5 mps 651 mmHg 37%
10:00 +18°C° 0 mm 4 mps 652 mmHg 31%
11:00 +20°C° 0 mm 4 mps 652 mmHg 24%
12:00 +21°C° 0 mm 3 mps 652 mmHg 22%
13:00 +24°C° 0 mm 2 mps 652 mmHg 19%
14:00 +25°C° 0 mm 2 mps 651 mmHg 17%
15:00 +26°C° 0 mm 2 mps 651 mmHg 16%
16:00 +26°C° 0 mm 2 mps 651 mmHg 16%
17:00 +26°C° 0 mm 2 mps 651 mmHg 15%
18:00 +24°C° 0 mm 3 mps 651 mmHg 21%
19:00 +21°C° 0 mm 4 mps 651 mmHg 27%
20:00 +19°C° 0 mm 5 mps 650 mmHg 33%
21:00 +16°C° 0 mm 5 mps 650 mmHg 40%
22:00 +15°C° 0 mm 4 mps 651 mmHg 48%
23:00 +13°C° 0 mm 4 mps 651 mmHg 56%

Tomorrow, 3 December, Thursday

Time Temperature Precipitation Wind Pressure Humidity
00:00 +13°C° 0 mm 3 mps 650 mmHg 60%
01:00 +12°C° 0 mm 3 mps 650 mmHg 64%
02:00 +12°C° 0 mm 2 mps 649 mmHg 69%
03:00 +12°C° 0 mm 2 mps 649 mmHg 70%
04:00 +12°C° 0 mm 1 mps 649 mmHg 71%
05:00 +11°C° 0 mm 1 mps 649 mmHg 72%
06:00 +14°C° 0 mm 1 mps 650 mmHg 64%
07:00 +16°C° 0 mm 2 mps 651 mmHg 56%
08:00 +18°C° 0 mm 2 mps 651 mmHg 48%
09:00 +21°C° 0 mm 3 mps 652 mmHg 41%
10:00 +25°C° 0 mm 5 mps 652 mmHg 33%
11:00 +28°C° 0 mm 6 mps 652 mmHg 26%
12:00 +29°C° 0 mm 6 mps 652 mmHg 22%
13:00 +30°C° 0 mm 7 mps 651 mmHg 19%
14:00 +32°C° 0 mm 8 mps 651 mmHg 15%
15:00 +32°C° 0 mm 8 mps 651 mmHg 14%
16:00 +31°C° 0 mm 8 mps 650 mmHg 13%
17:00 +31°C° 0 mm 8 mps 650 mmHg 12%
18:00 +27°C° 0 mm 8 mps 650 mmHg 27%
19:00 +22°C° 0 mm 7 mps 649 mmHg 41%
20:00 +17°C° 0 mm 7 mps 649 mmHg 56%
21:00 +16°C° 0 mm 7 mps 649 mmHg 61%
22:00 +15°C° 0 mm 7 mps 650 mmHg 67%
23:00 +14°C° 0 mm 7 mps 650 mmHg 72%

Day after tomorrow, 4 December, Friday

Time Temperature Precipitation Wind Pressure Humidity
00:00 +14°C° 0 mm 6 mps 650 mmHg 73%
01:00 +13°C° 0 mm 5 mps 650 mmHg 74%
02:00 +13°C° 0 mm 4 mps 650 mmHg 76%
03:00 +13°C° 0 mm 4 mps 650 mmHg 77%
04:00 +12°C° 0 mm 4 mps 650 mmHg 79%
05:00 +12°C° 0 mm 3 mps 650 mmHg 81%
06:00 +14°C° 0 mm 3 mps 651 mmHg 71%
07:00 +17°C° 0 mm 3 mps 652 mmHg 60%
08:00 +19°C° 0 mm 4 mps 653 mmHg 50%
09:00 +21°C° 0 mm 3 mps 653 mmHg 44%
10:00 +24°C° 0 mm 2 mps 653 mmHg 37%
11:00 +26°C° 0 mm 2 mps 653 mmHg 30%
12:00 +27°C° 0 mm 2 mps 653 mmHg 26%
13:00 +28°C° 0 mm 3 mps 653 mmHg 21%
14:00 +29°C° 0 mm 3 mps 653 mmHg 17%
15:00 +28°C° 0 mm 5 mps 652 mmHg 21%
16:00 +27°C° 0 mm 7 mps 651 mmHg 25%
17:00 +27°C° 0 mm 9 mps 651 mmHg 28%
18:00 +23°C° 0 mm 9 mps 651 mmHg 38%
19:00 +20°C° 0 mm 8 mps 651 mmHg 48%
20:00 +17°C° 0 mm 7 mps 651 mmHg 58%
21:00 +16°C° 0 mm 7 mps 651 mmHg 61%
22:00 +15°C° 0 mm 6 mps 651 mmHg 65%
23:00 +14°C° 0 mm 5 mps 652 mmHg 68%

5 December, Saturday

Time Temperature Precipitation Wind Pressure Humidity
00:00 +14°C° 0 mm 4 mps 651 mmHg 69%
01:00 +14°C° 0 mm 4 mps 651 mmHg 70%
02:00 +13°C° 0 mm 3 mps 651 mmHg 71%
03:00 +13°C° 0 mm 3 mps 651 mmHg 73%
04:00 +14°C° 0 mm 2 mps 651 mmHg 75%
05:00 +14°C° 0 mm 2 mps 650 mmHg 77%
06:00 +17°C° 0 mm 4 mps 651 mmHg 70%
07:00 +19°C° 0 mm 6 mps 652 mmHg 63%
08:00 +21°C° 0 mm 8 mps 652 mmHg 56%
09:00 +23°C° 0 mm 8 mps 652 mmHg 50%
10:00 +26°C° 0 mm 8 mps 652 mmHg 44%
11:00 +27°C° 0 mm 8 mps 652 mmHg 38%
12:00 +28°C° 0 mm 7 mps 651 mmHg 36%
13:00 +28°C° 0 mm 7 mps 650 mmHg 33%
14:00 +28°C° 0 mm 6 mps 650 mmHg 30%
15:00 +27°C° 0.4 mm 5 mps 649 mmHg 35%
16:00 +25°C° 0.4 mm 4 mps 649 mmHg 40%
17:00 +24°C° 0.4 mm 3 mps 648 mmHg 44%
18:00 +22°C° 0 mm 4 mps 648 mmHg 51%
19:00 +20°C° 0 mm 4 mps 649 mmHg 58%
20:00 +19°C° 0 mm 4 mps 649 mmHg 65%
21:00 +19°C° 0.2 mm 4 mps 649 mmHg 69%
22:00 +18°C° 0.2 mm 4 mps 649 mmHg 73%
23:00 +17°C° 0.2 mm 4 mps 649 mmHg 78%

6 December, Sunday

Time Temperature Precipitation Wind Pressure Humidity
00:00 +17°C° 0.3 mm 4 mps 649 mmHg 81%
01:00 +16°C° 0.3 mm 3 mps 648 mmHg 84%
02:00 +16°C° 0.3 mm 2 mps 648 mmHg 87%
03:00 +16°C° 1.4 mm 2 mps 648 mmHg 87%
04:00 +16°C° 1.4 mm 2 mps 648 mmHg 88%
05:00 +16°C° 1.4 mm 2 mps 648 mmHg 89%
06:00 +17°C° 0.8 mm 4 mps 649 mmHg 83%
07:00 +17°C° 0.8 mm 5 mps 649 mmHg 78%
08:00 +20°C° 0.8 mm 7 mps 650 mmHg 73%
09:00 +22°C° 0.5 mm 7 mps 650 mmHg 63%
10:00 +24°C° 0.5 mm 8 mps 650 mmHg 54%
11:00 +27°C° 0.5 mm 8 mps 650 mmHg 44%
12:00 +28°C° 0.2 mm 8 mps 650 mmHg 39%
13:00 +29°C° 0.2 mm 8 mps 649 mmHg 35%
14:00 +31°C° 0.2 mm 8 mps 649 mmHg 30%
15:00 +29°C° 0 mm 9 mps 649 mmHg 34%
16:00 +28°C° 0 mm 10 mps 648 mmHg 38%
17:00 +26°C° 0 mm 11 mps 648 mmHg 43%
18:00 +23°C° 0.2 mm 10 mps 648 mmHg 52%
19:00 +21°C° 0.2 mm 9 mps 648 mmHg 61%
20:00 +18°C° 0.2 mm 8 mps 648 mmHg 71%
21:00 +17°C° 0.1 mm 7 mps 649 mmHg 71%
22:00 +17°C° 0.1 mm 6 mps 649 mmHg 70%
23:00 +17°C° 0.1 mm 5 mps 650 mmHg 70%

7 December, Monday

Time Temperature Precipitation Wind Pressure Humidity
00:00 +16°C° 0 mm 5 mps 649 mmHg 73%
01:00 +16°C° 0 mm 5 mps 649 mmHg 75%
02:00 +15°C° 0 mm 5 mps 649 mmHg 78%
03:00 +15°C° 0 mm 4 mps 649 mmHg 78%
04:00 +15°C° 0 mm 4 mps 649 mmHg 79%
05:00 +14°C° 0 mm 4 mps 649 mmHg 80%
06:00 +17°C° 0 mm 4 mps 649 mmHg 72%
07:00 +19°C° 0 mm 4 mps 650 mmHg 64%
08:00 +21°C° 0 mm 5 mps 651 mmHg 57%
09:00 +22°C° 0.3 mm 5 mps 651 mmHg 53%
10:00 +23°C° 0.3 mm 4 mps 651 mmHg 50%
11:00 +25°C° 0.3 mm 4 mps 651 mmHg 46%
12:00 +25°C° 0.1 mm 5 mps 651 mmHg 48%
13:00 +24°C° 0.1 mm 6 mps 650 mmHg 49%
14:00 +24°C° 0.1 mm 8 mps 650 mmHg 51%
15:00 +23°C° 0 mm 9 mps 650 mmHg 51%
16:00 +22°C° 0 mm 10 mps 650 mmHg 52%
17:00 +22°C° 0 mm 12 mps 649 mmHg 53%
18:00 +19°C° 0 mm 11 mps 649 mmHg 58%
19:00 +18°C° 0 mm 9 mps 649 mmHg 64%
20:00 +16°C° 0 mm 8 mps 649 mmHg 69%
21:00 +16°C° 0 mm 7 mps 650 mmHg 70%
22:00 +15°C° 0 mm 6 mps 650 mmHg 71%
23:00 +15°C° 0 mm 5 mps 650 mmHg 71%
Show more